Regional Weather Roundup
Issued by NWS

Home | Current Version | Previous Version | Graphics & Text | Print | Product List | Glossary On
Versions: 1 2 3 4 5 6 7 8 9 10 11 12 13 14 15 16 17 18 19 20 21 22 23 24 25 26 27 28 29 30 31 32 33 34 35 36 37 38 39 40 41 42 43 44 45 46 47 48 49 50
000
ASUS43 KIND 042359
RWRIN

WEATHER ROUNDUP FOR INDIANA
NATIONAL WEATHER SERVICE INDIANAPOLIS IN
800 PM EDT FRI SEP 04 2015

NOTE: "FAIR" INDICATES FEW OR NO CLOUDS BELOW 12,000 FEET WITH NO
SIGNIFICANT WEATHER AND/OR OBSTRUCTIONS TO VISIBILITY.

* - STATION DOES NOT REPORT WEATHER SUCH AS PRECIPITATION OR FOG.

+ - STATION NOT QUALITY CONTROLLED BY THE NATIONAL WEATHER SERVICE.
    USE DATA WITH CAUTION...ESPECIALLY DEWPOINT AND RELATIVE
    HUMIDITY OBSERVATIONS.

INZ001>003-010>013-019-020-050100-
NORTHWEST INDIANA

CITY           SKY/WX    TMP DP  RH WIND       PRES   REMARKS
RENSSELAER +   FAIR      70  68  94 NE5       30.02R

$$

LMZ046-743>745-050100-
SOUTHERN LAKE MICHIGAN

STATION/POSITION TIME  TEMP    WIND        PRES    WAVE
                       AIR SEA DIR/SP/G            HT
                 (UTC) (F)     (DEG/KT/KT) (MB)    (FT)
BURNS HARBOR     2300   73      70/ 10/ 12 1017.6R
MICHIGAN CITY    2300   71      30/ 10/ 11   N/A
5NW MICH CITY    2300   71 74   60/  8/ 10   N/A     1

$$

INZ004-005-014>016-021>024-050100-
NORTH CENTRAL INDIANA

CITY           SKY/WX    TMP DP  RH WIND       PRES   REMARKS
ELKHART        PTCLDY    77  72  83 CALM      30.04R
GOSHEN         FAIR      73  65  75 SW5       30.04S
6HR MIN TEMP:  73; 6HR MAX TEMP:  83;

SOUTH BEND     FAIR      77  69  76 CALM      30.04S
6HR MIN TEMP:  77; 6HR MAX TEMP:  83;


$$

INZ006>009-017-018-025>027-050100-
NORTHEAST INDIANA

CITY           SKY/WX    TMP DP  RH WIND       PRES   REMARKS
ANGOLA *+      CLOUDY    75  72  88 SW6       30.04R
FORT WAYNE     MOCLDY    68  65  90 SW3       30.04S
6HR MIN TEMP:  65; 6HR MAX TEMP:  83; 6HR PCP:  0.36;


$$

INZ028-029-035-036-043>045-051>053-050100-
WEST CENTRAL INDIANA

CITY           SKY/WX    TMP DP  RH WIND       PRES   REMARKS
CRAWFORDSVL +  TSTM      67  61  82 S8        30.06S
6HR MIN TEMP:  67; 6HR MAX TEMP:  90; 6HR PCP:  0.50;

GREENCASTLE +  MOCLDY    73  61  64 NE13G22   30.07R
LAFAYETTE      LGT RAIN  76  67  73 S3        30.02R
6HR MIN TEMP:  76; 6HR MAX TEMP:  94; 6HR PCP: TRACE;

TERRE HAUTE    FAIR      83  68  60 CALM      30.02R
6HR MIN TEMP:  83; 6HR MAX TEMP:  94;


$$

INZ030>032-037>040-046>048-054>057-064-065-050100-
CENTRAL INDIANA

CITY           SKY/WX    TMP DP  RH WIND       PRES   REMARKS
FRANKFORT +    FAIR      74  68  81 SE3       30.08R
6HR MIN TEMP:  72; 6HR MAX TEMP:  94; 6HR PCP:  0.02;

GREENWOOD *+   FAIR      77  64  65 E5        30.06R
INDIANAPOLIS   CLOUDY    80  64  58 NE7       30.05R
6HR MIN TEMP:  79; 6HR MAX TEMP:  94;

-EAGLE CREEK   LGT RAIN  78  68  71 E6        30.05R
6HR MIN TEMP:  78; 6HR MAX TEMP:  93; 6HR PCP: TRACE;

KOKOMO *+      FAIR      70  63  78 S10       30.06R
6HR MIN TEMP:  70; 6HR MAX TEMP:  93; 6HR PCP:  0.02;

MT COMFORT *+  FAIR      68  66  94 SW6       30.07R
SHELBYVILLE    FAIR      75  65  70 E3        30.06R
6HR MIN TEMP:  75; 6HR MAX TEMP:  94; 6HR PCP: TRACE;


$$

INZ033-034-041-042-049-050-058-059-050100-
EAST CENTRAL INDIANA

CITY           SKY/WX    TMP DP  RH WIND       PRES   REMARKS
MUNCIE         FAIR      69  63  81 W5        30.09R
6HR MIN TEMP:  69; 6HR MAX TEMP:  90; 6HR PCP: TRACE;


$$

INZ060-061-067>069-081>083-085>088-050100-
SOUTHWEST INDIANA

CITY           SKY/WX    TMP DP  RH WIND       PRES   REMARKS
EVANSVILLE     FAIR      87  67  51 NW3       30.00S
6HR MIN TEMP:  87; 6HR MAX TEMP:  95;

HUNTINGBURG *+ FAIR      86  66  51 CALM      30.01R
6HR MIN TEMP:  86; 6HR MAX TEMP:  93;


$$

INZ062-063-066-070>080-084-089>092-050100-
SOUTH CENTRAL AND SOUTHEAST INDIANA

CITY           SKY/WX    TMP DP  RH WIND       PRES   REMARKS
BLOOMINGTON    FAIR      82  72  71 N3        30.04R
6HR MIN TEMP:  82; 6HR MAX TEMP:  92;

MADISON *+     FAIR      81  72  74 CALM      30.05R
SEYMOUR +      FAIR      86  66  51 CALM      30.03R

$$



USA.gov is the U.S. government's official web portal to all federal, state and local government web resources and services.